Time,TemperatureF,DewpointF,PressureIn,WindDirection,WindDirectionDegrees,WindSpeedMPH,WindSpeedGustMPH,Humidity,HourlyPrecipIn,Conditions,Clouds,dailyrainin,SoftwareType,DateUTC
2013-02-12 00:02:00,22.0,-99.9,-100.00,NW,307,9.0,17.0,-999,-99.99,,,-99.99,,2013-02-12 05:02:00,
2013-02-12 00:11:00,22.0,-99.9,-100.00,NW,307,9.0,17.0,-999,-99.99,,,-99.99,,2013-02-12 05:11:00,
2013-02-12 00:22:00,22.0,-99.9,-100.00,NW,307,9.0,17.0,-999,-99.99,,,-99.99,,2013-02-12 05:22:00,
2013-02-12 00:32:00,22.0,-99.9,-100.00,NW,307,9.0,17.0,-999,-99.99,,,-99.99,,2013-02-12 05:32:00,
2013-02-12 00:40:00,23.0,-99.9,-100.00,WNW,302,9.0,14.0,-999,-99.99,,,-99.99,,2013-02-12 05:40:00,
2013-02-12 01:02:00,23.0,-99.9,-100.00,WNW,302,9.0,14.0,-999,-99.99,,,-99.99,,2013-02-12 06:02:00,
2013-02-12 01:12:00,23.0,-99.9,-100.00,WNW,302,9.0,14.0,-999,-99.99,,,-99.99,,2013-02-12 06:12:00,
2013-02-12 01:22:00,23.0,-99.9,-100.00,WNW,302,9.0,14.0,-999,-99.99,,,-99.99,,2013-02-12 06:22:00,
2013-02-12 01:32:00,23.0,-99.9,-100.00,WNW,302,9.0,14.0,-999,-99.99,,,-99.99,,2013-02-12 06:32:00,
2013-02-12 01:40:00,23.0,-99.9,-100.00,NW,313,8.0,13.0,-999,-99.99,,,-99.99,,2013-02-12 06:40:00,
2013-02-12 02:02:00,23.0,-99.9,-100.00,NW,313,8.0,13.0,-999,-99.99,,,-99.99,,2013-02-12 07:02:00,
2013-02-12 02:12:00,23.0,-99.9,-100.00,NW,313,8.0,13.0,-999,-99.99,,,-99.99,,2013-02-12 07:12:00,
2013-02-12 02:22:00,23.0,-99.9,-100.00,NW,313,8.0,13.0,-999,-99.99,,,-99.99,,2013-02-12 07:22:00,
2013-02-12 02:32:00,23.0,-99.9,-100.00,NW,313,8.0,13.0,-999,-99.99,,,-99.99,,2013-02-12 07:32:00,
2013-02-12 02:40:00,23.0,-99.9,-100.00,NNW,328,7.0,14.0,-999,-99.99,,,-99.99,,2013-02-12 07:40:00,
2013-02-12 03:01:00,23.0,-99.9,-100.00,NNW,328,7.0,14.0,-999,-99.99,,,-99.99,,2013-02-12 08:01:00,
2013-02-12 03:11:00,23.0,-99.9,-100.00,NNW,328,7.0,14.0,-999,-99.99,,,-99.99,,2013-02-12 08:11:00,
2013-02-12 03:22:00,23.0,-99.9,-100.00,NNW,328,7.0,14.0,-999,-99.99,,,-99.99,,2013-02-12 08:22:00,
2013-02-12 03:32:00,23.0,-99.9,-100.00,NNW,328,7.0,14.0,-999,-99.99,,,-99.99,,2013-02-12 08:32:00,
2013-02-12 03:40:00,22.0,-99.9,-100.00,NW,306,4.0,10.0,-999,-99.99,,,-99.99,,2013-02-12 08:40:00,
2013-02-12 04:02:00,22.0,-99.9,-100.00,NW,306,4.0,10.0,-999,-99.99,,,-99.99,,2013-02-12 09:02:00,
2013-02-12 04:12:00,22.0,-99.9,-100.00,NW,306,4.0,10.0,-999,-99.99,,,-99.99,,2013-02-12 09:12:00,
2013-02-12 04:22:00,22.0,-99.9,-100.00,NW,306,4.0,10.0,-999,-99.99,,,-99.99,,2013-02-12 09:22:00,
2013-02-12 04:32:00,22.0,-99.9,-100.00,NW,306,4.0,10.0,-999,-99.99,,,-99.99,,2013-02-12 09:32:00,
2013-02-12 04:40:00,21.0,-99.9,-100.00,NW,316,3.0,9.0,-999,-99.99,,,-99.99,,2013-02-12 09:40:00,
2013-02-12 05:02:00,21.0,-99.9,-100.00,NW,316,3.0,9.0,-999,-99.99,,,-99.99,,2013-02-12 10:02:00,
2013-02-12 05:11:00,21.0,-99.9,-100.00,NW,316,3.0,9.0,-999,-99.99,,,-99.99,,2013-02-12 10:11:00,
2013-02-12 05:22:00,21.0,-99.9,-100.00,NW,316,3.0,9.0,-999,-99.99,,,-99.99,,2013-02-12 10:22:00,
2013-02-12 05:32:00,21.0,-99.9,-100.00,NW,316,3.0,9.0,-999,-99.99,,,-99.99,,2013-02-12 10:32:00,
2013-02-12 05:40:00,20.0,-99.9,-100.00,West,278,3.0,6.0,-999,-99.99,,,-99.99,,2013-02-12 10:40:00,
2013-02-12 06:02:00,20.0,-99.9,-100.00,West,278,3.0,6.0,-999,-99.99,,,-99.99,,2013-02-12 11:02:00,
2013-02-12 06:11:00,20.0,-99.9,-100.00,West,278,3.0,6.0,-999,-99.99,,,-99.99,,2013-02-12 11:11:00,
2013-02-12 06:22:00,20.0,-99.9,-100.00,West,278,3.0,6.0,-999,-99.99,,,-99.99,,2013-02-12 11:22:00,
2013-02-12 06:32:00,20.0,-99.9,-100.00,West,278,3.0,6.0,-999,-99.99,,,-99.99,,2013-02-12 11:32:00,
2013-02-12 06:40:00,18.0,-99.9,-100.00,WSW,246,2.0,5.0,-999,-99.99,,,-99.99,,2013-02-12 11:40:00,
2013-02-12 07:02:00,18.0,-99.9,-100.00,WSW,246,2.0,5.0,-999,-99.99,,,-99.99,,2013-02-12 12:02:00,
2013-02-12 07:11:00,18.0,-99.9,-100.00,WSW,246,2.0,5.0,-999,-99.99,,,-99.99,,2013-02-12 12:11:00,
2013-02-12 07:22:00,18.0,-99.9,-100.00,WSW,246,2.0,5.0,-999,-99.99,,,-99.99,,2013-02-12 12:22:00,
2013-02-12 07:32:00,18.0,-99.9,-100.00,WSW,246,2.0,5.0,-999,-99.99,,,-99.99,,2013-02-12 12:32:00,
2013-02-12 07:40:00,21.0,-99.9,-100.00,WNW,296,3.0,7.0,-999,-99.99,,,-99.99,,2013-02-12 12:40:00,
2013-02-12 08:02:00,21.0,-99.9,-100.00,WNW,296,3.0,7.0,-999,-99.99,,,-99.99,,2013-02-12 13:02:00,
2013-02-12 08:11:00,21.0,-99.9,-100.00,WNW,296,3.0,7.0,-999,-99.99,,,-99.99,,2013-02-12 13:11:00,
2013-02-12 08:22:00,21.0,-99.9,-100.00,WNW,296,3.0,7.0,-999,-99.99,,,-99.99,,2013-02-12 13:22:00,
2013-02-12 08:32:00,21.0,-99.9,-100.00,WNW,296,3.0,7.0,-999,-99.99,,,-99.99,,2013-02-12 13:32:00,
2013-02-12 08:40:00,22.0,-99.9,-100.00,SW,227,1.0,2.0,-999,-99.99,,,-99.99,,2013-02-12 13:40:00,
2013-02-12 09:01:00,22.0,-99.9,-100.00,SW,227,1.0,2.0,-999,-99.99,,,-99.99,,2013-02-12 14:01:00,
2013-02-12 09:12:00,22.0,-99.9,-100.00,SW,227,1.0,2.0,-999,-99.99,,,-99.99,,2013-02-12 14:12:00,
2013-02-12 09:22:00,22.0,-99.9,-100.00,SW,227,1.0,2.0,-999,-99.99,,,-99.99,,2013-02-12 14:22:00,
2013-02-12 09:32:00,22.0,-99.9,-100.00,SW,227,1.0,2.0,-999,-99.99,,,-99.99,,2013-02-12 14:32:00,
2013-02-12 09:40:00,23.0,-99.9,-100.00,SW,223,4.0,8.0,-999,-99.99,,,-99.99,,2013-02-12 14:40:00,
2013-02-12 10:02:00,23.0,-99.9,-100.00,SW,223,4.0,8.0,-999,-99.99,,,-99.99,,2013-02-12 15:02:00,
2013-02-12 10:11:00,23.0,-99.9,-100.00,SW,223,4.0,8.0,-999,-99.99,,,-99.99,,2013-02-12 15:11:00,
2013-02-12 10:22:00,23.0,-99.9,-100.00,SW,223,4.0,8.0,-999,-99.99,,,-99.99,,2013-02-12 15:22:00,
2013-02-12 10:32:00,23.0,-99.9,-100.00,SW,223,4.0,8.0,-999,-99.99,,,-99.99,,2013-02-12 15:32:00,
2013-02-12 10:40:00,24.0,-99.9,-100.00,WSW,255,4.0,9.0,-999,-99.99,,,-99.99,,2013-02-12 15:40:00,
2013-02-12 11:02:00,24.0,-99.9,-100.00,WSW,255,4.0,9.0,-999,-99.99,,,-99.99,,2013-02-12 16:02:00,
2013-02-12 11:11:00,24.0,-99.9,-100.00,WSW,255,4.0,9.0,-999,-99.99,,,-99.99,,2013-02-12 16:11:00,
2013-02-12 11:22:00,24.0,-99.9,-100.00,WSW,255,4.0,9.0,-999,-99.99,,,-99.99,,2013-02-12 16:22:00,
2013-02-12 11:32:00,24.0,-99.9,-100.00,WSW,255,4.0,9.0,-999,-99.99,,,-99.99,,2013-02-12 16:32:00,
2013-02-12 11:40:00,24.0,-99.9,-100.00,West,262,5.0,10.0,-999,-99.99,,,-99.99,,2013-02-12 16:40:00,
2013-02-12 12:01:00,24.0,-99.9,-100.00,West,262,5.0,10.0,-999,-99.99,,,-99.99,,2013-02-12 17:01:00,
2013-02-12 12:12:00,24.0,-99.9,-100.00,West,262,5.0,10.0,-999,-99.99,,,-99.99,,2013-02-12 17:12:00,
2013-02-12 12:22:00,24.0,-99.9,-100.00,West,262,5.0,10.0,-999,-99.99,,,-99.99,,2013-02-12 17:22:00,
2013-02-12 12:32:00,24.0,-99.9,-100.00,West,262,5.0,10.0,-999,-99.99,,,-99.99,,2013-02-12 17:32:00,
2013-02-12 12:40:00,26.0,-99.9,-100.00,WSW,254,5.0,9.0,-999,-99.99,,,-99.99,,2013-02-12 17:40:00,
2013-02-12 13:02:00,26.0,-99.9,-100.00,WSW,254,5.0,9.0,-999,-99.99,,,-99.99,,2013-02-12 18:02:00,
2013-02-12 13:12:00,26.0,-99.9,-100.00,WSW,254,5.0,9.0,-999,-99.99,,,-99.99,,2013-02-12 18:12:00,
2013-02-12 13:23:00,26.0,-99.9,-100.00,WSW,254,5.0,9.0,-999,-99.99,,,-99.99,,2013-02-12 18:23:00,
2013-02-12 13:32:00,26.0,-99.9,-100.00,WSW,254,5.0,9.0,-999,-99.99,,,-99.99,,2013-02-12 18:32:00,
2013-02-12 13:40:00,26.0,-99.9,-100.00,SW,232,6.0,11.0,-999,-99.99,,,-99.99,,2013-02-12 18:40:00,
2013-02-12 14:02:00,26.0,-99.9,-100.00,SW,232,6.0,11.0,-999,-99.99,,,-99.99,,2013-02-12 19:02:00,
2013-02-12 14:11:00,26.0,-99.9,-100.00,SW,232,6.0,11.0,-999,-99.99,,,-99.99,,2013-02-12 19:11:00,
2013-02-12 14:22:00,26.0,-99.9,-100.00,SW,232,6.0,11.0,-999,-99.99,,,-99.99,,2013-02-12 19:22:00,
2013-02-12 14:32:00,26.0,-99.9,-100.00,SW,232,6.0,11.0,-999,-99.99,,,-99.99,,2013-02-12 19:32:00,
2013-02-12 14:40:00,26.0,-99.9,-100.00,SSW,199,4.0,7.0,-999,-99.99,,,-99.99,,2013-02-12 19:40:00,
2013-02-12 15:02:00,26.0,-99.9,-100.00,SSW,199,4.0,7.0,-999,-99.99,,,-99.99,,2013-02-12 20:02:00,
2013-02-12 15:11:00,26.0,-99.9,-100.00,SSW,199,4.0,7.0,-999,-99.99,,,-99.99,,2013-02-12 20:11:00,
2013-02-12 15:22:00,26.0,-99.9,-100.00,SSW,199,4.0,7.0,-999,-99.99,,,-99.99,,2013-02-12 20:22:00,
2013-02-12 15:32:00,26.0,-99.9,-100.00,SSW,199,4.0,7.0,-999,-99.99,,,-99.99,,2013-02-12 20:32:00,
2013-02-12 15:40:00,27.0,-99.9,-100.00,SW,218,6.0,10.0,-999,-99.99,,,-99.99,,2013-02-12 20:40:00,
2013-02-12 16:02:00,27.0,-99.9,-100.00,SW,218,6.0,10.0,-999,-99.99,,,-99.99,,2013-02-12 21:02:00,
2013-02-12 16:11:00,27.0,-99.9,-100.00,SW,218,6.0,10.0,-999,-99.99,,,-99.99,,2013-02-12 21:11:00,
2013-02-12 16:21:00,27.0,-99.9,-100.00,SW,218,6.0,10.0,-999,-99.99,,,-99.99,,2013-02-12 21:21:00,
2013-02-12 16:32:00,27.0,-99.9,-100.00,SW,218,6.0,10.0,-999,-99.99,,,-99.99,,2013-02-12 21:32:00,
2013-02-12 16:40:00,27.0,-99.9,-100.00,SSW,202,6.0,12.0,-999,-99.99,,,-99.99,,2013-02-12 21:40:00,
2013-02-12 17:02:00,27.0,-99.9,-100.00,SSW,202,6.0,12.0,-999,-99.99,,,-99.99,,2013-02-12 22:02:00,
2013-02-12 17:12:00,27.0,-99.9,-100.00,SSW,202,6.0,12.0,-999,-99.99,,,-99.99,,2013-02-12 22:12:00,
2013-02-12 17:22:00,27.0,-99.9,-100.00,SSW,202,6.0,12.0,-999,-99.99,,,-99.99,,2013-02-12 22:22:00,
2013-02-12 17:32:00,27.0,-99.9,-100.00,SSW,202,6.0,12.0,-999,-99.99,,,-99.99,,2013-02-12 22:32:00,
2013-02-12 17:40:00,26.0,-99.9,-100.00,SW,220,2.0,7.0,-999,-99.99,,,-99.99,,2013-02-12 22:40:00,
2013-02-12 18:02:00,26.0,-99.9,-100.00,SW,220,2.0,7.0,-999,-99.99,,,-99.99,,2013-02-12 23:02:00,
2013-02-12 18:12:00,26.0,-99.9,-100.00,SW,220,2.0,7.0,-999,-99.99,,,-99.99,,2013-02-12 23:12:00,
2013-02-12 18:22:00,26.0,-99.9,-100.00,SW,220,2.0,7.0,-999,-99.99,,,-99.99,,2013-02-12 23:22:00,
2013-02-12 18:32:00,26.0,-99.9,-100.00,SW,220,2.0,7.0,-999,-99.99,,,-99.99,,2013-02-12 23:32:00,
2013-02-12 18:40:00,19.0,-99.9,-100.00,SSW,210,1.0,4.0,-999,-99.99,,,-99.99,,2013-02-12 23:40:00,
2013-02-12 19:02:00,19.0,-99.9,-100.00,SSW,210,1.0,4.0,-999,-99.99,,,-99.99,,2013-02-13 00:02:00,
2013-02-12 19:11:00,19.0,-99.9,-100.00,SSW,210,1.0,4.0,-999,-99.99,,,-99.99,,2013-02-13 00:11:00,
2013-02-12 19:22:00,19.0,-99.9,-100.00,SSW,210,1.0,4.0,-999,-99.99,,,-99.99,,2013-02-13 00:22:00,
2013-02-12 19:32:00,19.0,-99.9,-100.00,SSW,210,1.0,4.0,-999,-99.99,,,-99.99,,2013-02-13 00:32:00,
2013-02-12 19:40:00,22.0,-99.9,-100.00,SW,228,1.0,5.0,-999,-99.99,,,-99.99,,2013-02-13 00:40:00,
2013-02-12 20:01:00,22.0,-99.9,-100.00,SW,228,1.0,5.0,-999,-99.99,,,-99.99,,2013-02-13 01:01:00,
2013-02-12 20:11:00,22.0,-99.9,-100.00,SW,228,1.0,5.0,-999,-99.99,,,-99.99,,2013-02-13 01:11:00,
2013-02-12 20:22:00,22.0,-99.9,-100.00,SW,228,1.0,5.0,-999,-99.99,,,-99.99,,2013-02-13 01:22:00,
2013-02-12 20:32:00,22.0,-99.9,-100.00,SW,228,1.0,5.0,-999,-99.99,,,-99.99,,2013-02-13 01:32:00,
2013-02-12 20:40:00,20.0,-99.9,-100.00,SSW,199,2.0,4.0,-999,-99.99,,,-99.99,,2013-02-13 01:40:00,
2013-02-12 21:01:00,20.0,-99.9,-100.00,SSW,199,2.0,4.0,-999,-99.99,,,-99.99,,2013-02-13 02:01:00,
2013-02-12 21:11:00,20.0,-99.9,-100.00,SSW,199,2.0,4.0,-999,-99.99,,,-99.99,,2013-02-13 02:11:00,
2013-02-12 21:22:00,20.0,-99.9,-100.00,SSW,199,2.0,4.0,-999,-99.99,,,-99.99,,2013-02-13 02:22:00,
2013-02-12 21:32:00,20.0,-99.9,-100.00,SSW,199,2.0,4.0,-999,-99.99,,,-99.99,,2013-02-13 02:32:00,
2013-02-12 21:40:00,20.0,-99.9,-100.00,SSW,197,2.0,5.0,-999,-99.99,,,-99.99,,2013-02-13 02:40:00,
2013-02-12 22:02:00,20.0,-99.9,-100.00,SSW,197,2.0,5.0,-999,-99.99,,,-99.99,,2013-02-13 03:02:00,
2013-02-12 22:12:00,20.0,-99.9,-100.00,SSW,197,2.0,5.0,-999,-99.99,,,-99.99,,2013-02-13 03:12:00,
2013-02-12 22:22:00,20.0,-99.9,-100.00,SSW,197,2.0,5.0,-999,-99.99,,,-99.99,,2013-02-13 03:22:00,
2013-02-12 22:32:00,20.0,-99.9,-100.00,SSW,197,2.0,5.0,-999,-99.99,,,-99.99,,2013-02-13 03:32:00,
2013-02-12 22:40:00,20.0,-99.9,-100.00,North,-999,0.0,4.0,-999,-99.99,,,-99.99,,2013-02-13 03:40:00,
2013-02-12 23:02:00,20.0,-99.9,-100.00,North,-999,0.0,4.0,-999,-99.99,,,-99.99,,2013-02-13 04:02:00,
2013-02-12 23:12:00,20.0,-99.9,-100.00,North,-999,0.0,4.0,-999,-99.99,,,-99.99,,2013-02-13 04:12:00,
2013-02-12 23:22:00,20.0,-99.9,-100.00,North,-999,0.0,4.0,-999,-99.99,,,-99.99,,2013-02-13 04:22:00,
2013-02-12 23:32:00,20.0,-99.9,-100.00,North,-999,0.0,4.0,-999,-99.99,,,-99.99,,2013-02-13 04:32:00,
2013-02-12 23:40:00,21.0,-99.9,-100.00,SSE,160,2.0,5.0,-999,-99.99,,,-99.99,,2013-02-13 04:40:00,